Dewpoint
68 69 71 71 70 72 72 72 72 73 73 72 72 73 73 73 72 72 72 71 71 72 72 72 72 72 71 70 71 71 71 70 70 70 70 70 69 69 69 69 69 67 69
68 70 71 71 71 72 72 71 72 73 73 73 73 73 72 72 72 72 72 71 71 72 72 72 72 71 70 70 71 70 70 69 69 69 69 69 69 69 69 69 69 67 69
68 70 70 71 72 72 72 71 72 73 73 73 73 72 72 72 72 71 72 71 71 72 71 71 70 70 70 70 70 70 70 69 69 68 68 66 66 68 68 68 68 68 68
68 69 70 71 71 71 71 71 71 72 73 73 72 72 72 72 71 71 71 71 71 71 71 70 70 70 70 70 69 69 69 69 68 67 65 65 65 68 68 67 67 67 67
69 69 69 71 71 71 71 71 71 71 72 72 72 72 72 72 71 71 70 70 71 71 71 70 70 70 70 69 68 68 68 67 67 65 64 65 65 66 67 66 66 67 67
69 69 69 70 71 71 71 71 71 71 71 71 71 72 72 71 71 71 70 70 70 70 70 70 70 69 68 68 68 67 66 66 64 63 64 65 64 65 65 64 64 64 65
67 69 69 69 70 71 71 71 71 71 70 70 71 71 71 71 71 70 70 70 70 70 70 69 69 68 67 67 67 66 65 64 61 61 62 63 63 64 64 63 63 62 62
66 67 68 70 70 70 70 70 70 70 70 70 70 70 69 69 68 68 69 69 68 69 68 69 68 67 67 66 66 64 64 63 60 61 62 62 64 64 63 63 61 61 60
65 65 67 68 69 70 69 69 68 68 68 69 68 67 67 66 67 67 68 68 68 68 68 68 67 66 66 65 64 63 62 62 59 59 61 62 64 63 61 59 59 58 57
64 64 64 68 69 69 69 68 66 67 67 66 65 65 64 63 64 65 66 67 67 68 68 67 66 66 65 64 63 62 61 60 56 58 59 60 63 60 59 58 59 59 59
63 63 63 64 65 66 66 67 67 67 66 66 65 64 64 63 64 64 66 66 67 66 66 65 65 65 64 63 63 62 59 55 55 56 57 61 60 60 60 59 59 58 58
62 62 64 64 61 62 65 65 66 66 65 64 63 62 62 63 63 63 64 65 65 65 65 64 65 64 62 60 60 59 55 55 54 55 57 61 61 60 59 58 57 57 59
61 60 63 64 62 62 64 65 65 65 64 64 63 62 62 63 63 64 64 64 64 64 61 61 62 60 59 58 55 56 55 55 55 55 57 58 60 57 57 59 58 58 57
59 60 62 63 63 63 63 63 63 64 64 63 63 63 63 63 63 63 63 63 63 62 59 59 59 58 57 56 55 55 55 55 55 55 55 59 59 59 60 59 59 58 57
58 59 61 62 63 62 62 62 62 63 63 62 63 62 62 62 62 63 63 63 63 60 58 55 55 56 54 54 55 55 55 55 55 55 56 59 60 60 59 59 59 57 56
59 60 62 62 62 61 61 61 61 61 62 61 62 62 61 61 61 62 62 62 61 60 57 53 54 54 53 54 54 54 55 55 56 56 56 57 59 59 59 58 57 57 57
59 60 62 62 61 59 59 60 60 59 60 60 61 61 60 60 61 62 62 61 60 59 55 52 52 53 53 54 54 54 55 55 55 56 56 56 57 58 59 59 58 56 56
58 59 61 61 61 58 59 60 61 60 59 59 59 61 60 60 63 63 62 61 59 57 55 52 51 52 53 53 53 54 54 55 55 55 56 56 56 56 58 58 59 58 56
58 58 59 60 59 57 57 59 59 60 61 61 60 60 61 60 61 62 61 59 57 55 55 52 51 52 53 53 53 53 54 54 54 54 55 55 55 55 56 58 58 58 58
57 58 59 59 58 57 58 58 60 60 61 61 61 60 60 61 61 62 60 57 57 54 53 51 50 51 53 53 52 52 53 53 54 54 54 54 55 55 55 56 57 57 57
57 58 58 59 59 58 57 57 58 58 59 60 61 62 61 60 61 60 58 56 55 53 52 52 50 50 52 53 52 51 52 52 53 53 54 54 55 55 55 55 56 56 56
58 57 57 58 57 58 59 58 58 58 59 60 61 60 59 59 58 57 56 55 53 52 53 52 50 50 51 53 51 50 49 51 52 53 54 54 54 54 54 55 55 56 56
57 57 57 57 57 57 58 58 57 58 58 58 59 60 59 59 58 57 56 55 51 51 52 52 51 50 51 52 52 50 48 48 50 52 52 53 53 54 54 54 55 55 55
56 57 57 57 55 56 57 56 56 55 55 57 58 59 60 59 58 57 56 54 51 51 52 53 52 50 52 51 50 50 50 50 50 46 49 52 53 53 54 54 54 54 55
56 56 56 56 56 56 56 56 54 55 55 57 58 58 59 60 58 57 58 55 54 54 54 54 54 52 52 52 50 49 49 50 49 48 46 48 51 53 53 54 54 54 54
55 56 56 56 56 56 56 55 54 54 55 55 56 57 57 58 59 57 58 58 58 56 56 56 55 53 53 53 51 50 50 49 48 48 46 47 48 49 52 53 54 54 55
Lifted_Index
-4 -4 -4 -4 -4 -4 -4 -5 -6 -6 -6 -6 -6 -6 -6 -6 -5 -5 -5 -5 -5 -5 -5 -5 -5 -4 -4 -4 -4 -4 -3 -3 -2 -2 -2 -2 -2 -2 -2 -1 -1 -1 -1
-3 -4 -4 -4 -4 -4 -4 -5 -6 -6 -6 -6 -6 -6 -6 -6 -5 -5 -5 -5 -6 -6 -5 -5 -5 -4 -4 -4 -4 -4 -3 -3 -2 -2 -2 -2 -2 -1 -1 -1 -1 -1 -1
-3 -3 -4 -4 -4 -4 -4 -5 -6 -6 -7 -7 -7 -6 -6 -6 -6 -5 -5 -6 -6 -6 -5 -5 -5 -4 -4 -4 -4 -3 -3 -2 -2 -1 -1 -1 -1 -1 -1 -1 -1 -1 -1
-3 -3 -4 -4 -4 -4 -5 -5 -6 -6 -6 -7 -7 -7 -6 -6 -6 -6 -6 -6 -6 -6 -5 -5 -5 -5 -4 -4 -3 -3 -2 -2 -1 -1 -1 -1 -1 -1 -1 -1 -1 -1 -1
-3 -3 -3 -4 -4 -4 -5 -5 -6 -6 -6 -6 -7 -7 -7 -6 -6 -6 -6 -6 -6 -6 -6 -6 -5 -5 -4 -4 -3 -2 -1 -1 -0 -0 -0 -1 -1 -1 -0 -0 -0 -0 -0
-4 -3 -3 -4 -4 -5 -5 -5 -5 -6 -6 -6 -6 -6 -6 -6 -6 -6 -6 -6 -6 -6 -6 -6 -5 -5 -4 -3 -3 -2 -1 -0 -0 0 -0 -0 -0 0 1 1 1 1 1
-4 -3 -3 -4 -5 -5 -5 -6 -6 -6 -6 -6 -6 -6 -6 -6 -5 -5 -5 -5 -6 -6 -6 -6 -5 -4 -3 -2 -2 -1 -0 0 0 0 0 0 0 1 1 2 2 3 3
-4 -4 -4 -4 -5 -6 -6 -6 -6 -6 -5 -5 -5 -5 -4 -4 -4 -4 -4 -5 -5 -5 -6 -5 -4 -3 -2 -2 -1 -1 -0 0 1 1 1 1 1 1 2 3 3 4 4
-4 -4 -4 -5 -5 -6 -6 -6 -5 -5 -5 -4 -4 -3 -2 -1 -1 -2 -3 -4 -4 -4 -5 -4 -3 -2 -2 -1 -1 -0 0 1 1 1 1 1 2 2 3 4 4 5 5
-3 -3 -4 -5 -5 -6 -6 -6 -5 -4 -4 -3 -2 -1 -0 0 0 -0 -1 -2 -3 -3 -4 -3 -3 -2 -1 -0 -0 0 1 1 2 2 2 2 2 3 4 4 5 5 5
-3 -3 -4 -4 -5 -5 -5 -5 -5 -4 -3 -2 -1 -0 1 1 1 0 -0 -1 -2 -2 -2 -2 -2 -1 -0 0 1 1 1 2 3 3 3 3 3 4 4 5 5 5 5
-3 -3 -4 -4 -4 -4 -4 -4 -4 -3 -2 -1 -0 1 1 1 1 1 0 -0 -1 -1 -1 -1 -1 -0 0 1 2 2 2 3 4 4 4 4 4 4 4 5 5 5 5
-3 -3 -3 -3 -3 -3 -3 -3 -3 -2 -2 -1 0 1 1 1 1 1 1 0 0 -0 -0 -0 -0 0 1 1 2 3 3 4 4 4 5 4 4 4 5 5 5 5 5
-3 -3 -3 -3 -2 -2 -2 -2 -2 -2 -1 -1 0 1 1 1 1 1 1 1 1 1 0 0 1 1 1 2 3 3 4 5 5 5 5 4 4 4 4 5 5 5 6
-2 -2 -2 -2 -2 -2 -2 -2 -2 -1 -1 -0 -0 0 1 0 0 1 1 1 1 1 1 1 1 2 2 3 4 4 5 5 5 5 5 4 4 4 4 5 5 5 6
-2 -2 -2 -2 -2 -1 -1 -1 -1 -1 -1 -0 -0 0 0 1 1 1 1 1 1 1 1 2 2 3 3 4 4 4 5 5 5 5 4 4 4 4 4 5 5 5 5
-2 -2 -2 -2 -1 -0 -0 -0 -0 -0 -0 -0 0 0 0 1 1 1 1 1 1 1 2 3 3 4 4 4 4 4 5 5 5 5 4 4 4 4 5 5 5 5 5
-2 -2 -2 -1 -0 -0 0 0 0 0 1 1 1 1 1 1 1 1 1 1 2 2 2 3 4 4 4 4 4 4 4 4 4 5 5 5 5 5 5 5 5 5 5
-2 -2 -2 -1 -0 0 0 1 1 1 1 2 2 2 1 1 1 1 1 1 2 2 2 3 3 4 4 4 4 4 4 4 4 4 5 5 5 5 5 5 5 5 5
-2 -2 -1 -0 -0 0 1 1 1 1 2 2 2 2 2 2 2 1 1 1 2 2 2 3 3 4 4 4 4 4 4 4 4 4 5 5 5 5 5 5 5 5 5
-2 -1 -1 -0 -0 0 1 2 2 2 2 2 2 2 2 2 2 2 2 2 2 3 3 3 4 4 4 4 4 4 4 4 4 4 5 5 5 6 6 5 5 6 6
-1 -1 -1 -0 -0 0 1 2 2 2 2 2 2 2 2 2 2 2 2 2 3 3 4 4 4 4 4 4 4 4 4 4 4 4 4 4 5 5 5 5 6 6 6
-1 -1 -1 -1 -0 1 1 1 2 2 2 2 2 2 2 2 2 3 3 3 3 5 6 5 5 5 4 4 4 4 4 4 4 4 4 4 4 4 4 5 5 5 5
-1 -1 -1 -1 -0 1 1 2 2 2 2 2 2 2 2 2 2 3 3 4 4 6 6 6 5 5 4 4 4 4 4 4 4 4 4 4 4 3 3 3 4 4 4
-1 -1 -1 -1 -0 1 1 2 2 2 2 2 1 1 1 2 2 3 4 4 5 6 6 6 5 5 4 4 4 4 4 4 4 4 4 3 3 3 3 3 3 4 4
-1 -1 -2 -1 -1 1 1 2 2 3 2 2 1 1 1 2 2 2 3 4 5 5 6 5 5 5 4 4 4 4 4 4 4 4 4 3 3 3 3 3 3 4 4